GW6562 Weather Reports


time (UTC)temp
C
wind
direction
speed
KPH
gust
KPH
rain 1hr
cm
rain 24hr
cm
rain mn
cm
humidity
%
barometer
mb
20260506010959 6 294 3.2 6.4 0.00 0.00 0.00 83 1013.0
20260506010500 6 294 4.8 6.4 0.00 0.00 0.00 83 1013.1
20260506005958 6 300 4.8 6.4 0.00 0.00 0.00 83 1013.2
20260506005459 6 299 3.2 6.4 0.00 0.00 0.00 83 1013.2
20260506004958 6 317 3.2 4.8 0.00 0.00 0.00 83 1013.2
20260506004458 6 333 3.2 4.8 0.00 0.00 0.00 83 1013.2
20260506003958 6 355 0.0 3.2 0.00 0.00 0.00 83 1013.3
20260506003459 6 344 0.0 8.0 0.00 0.00 0.00 83 1013.2
20260506002959 6 355 6.4 8.0 0.00 0.00 0.00 83 1013.2
20260506002458 6 327 6.4 6.4 0.00 0.00 0.00 83 1013.3
20260506001959 6 347 3.2 8.0 0.00 0.00 0.00 83 1013.3
20260506001458 6 320 3.2 8.0 0.00 0.00 0.00 83 1013.3
20260506001000 6 321 4.8 8.0 0.00 0.00 0.00 83 1013.2
20260506000459 6 338 3.2 8.0 0.00 0.00 0.00 83 1013.3
20260506000000 6 325 4.8 8.0 0.00 0.00 0.00 82 1013.4
20260505235459 6 338 4.8 6.4 0.00 0.00 0.00 83 1013.3
20260505234959 6 348 1.6 8.0 0.00 0.00 0.00 83 1013.3
20260505234458 6 338 3.2 8.0 0.00 0.00 0.00 82 1013.4
20260505234000 6 313 3.2 9.7 0.00 0.00 0.00 82 1013.4
20260505232459 6 337 6.4 12.9 0.00 0.00 0.00 82 1013.3
20260505231959 6 337 4.8 9.7 0.00 0.00 0.00 81 1013.4
20260505231500 6 308 4.8 9.7 0.00 0.00 0.00 81 1013.5
20260505230959 6 310 8.0 8.0 0.00 0.00 0.00 81 1013.5
20260505230459 7 343 3.2 8.0 0.00 0.00 0.00 81 1013.6
20260505230002 7 320 3.2 8.0 0.00 0.00 0.00 81 1013.6
20260505224959 7 333 3.2 8.0 0.00 0.00 0.00 81 1013.5
20260505224459 7 348 3.2 9.7 0.00 0.00 0.00 81 1013.6
20260505224000 7 15 8.0 11.3 0.00 0.00 0.00 81 1013.6
20260505223458 7 338 4.8 9.7 0.00 0.00 0.00 81 1013.6
20260505222958 7 355 4.8 12.9 0.00 0.00 0.00 81 1013.5
20260505222459 7 355 8.0 12.9 0.00 0.00 0.00 80 1013.6
20260505221959 7 355 4.8 12.9 0.00 0.00 0.00 80 1013.7
20260505221458 7 345 4.8 12.9 0.00 0.00 0.00 80 1013.6
20260505214959 8 341 12.9 20.9 0.00 0.00 0.00 80 1013.6
20260505214500 8 360 14.5 19.3 0.00 0.00 0.00 80 1013.6
20260505213959 8 349 12.9 19.3 0.00 0.00 0.00 81 1013.6
20260505213001 8 348 8.0 17.7 0.00 0.00 0.00 80 1013.7
20260505212459 8 9 11.3 16.1 0.00 0.00 0.00 80 1013.7
20260505211959 8 5 8.0 20.9 0.00 0.00 0.00 80 1013.6
20260505211459 8 346 12.9 20.9 0.00 0.00 0.00 80 1013.6
20260505210959 8 340 16.1 20.9 0.00 0.00 0.00 80 1013.6
20260505210500 8 345 12.9 20.9 0.00 0.00 0.00 80 1013.6
20260505205958 8 345 6.4 19.3 0.00 0.00 0.00 79 1013.6
20260505205500 8 355 6.4 19.3 0.00 0.00 0.00 79 1013.5
20260505205001 8 351 12.9 19.3 0.00 0.00 0.00 79 1013.5
20260505204458 8 355 9.7 17.7 0.00 0.00 0.00 79 1013.5
20260505202958 9 18 14.5 20.9 0.00 0.00 0.00 78 1013.6
20260505202500 9 327 12.9 20.9 0.00 0.00 0.00 78 1013.6
20260505201958 9 345 12.9 20.9 0.00 0.00 0.00 78 1013.6
20260505201458 9 360 12.9 22.5 0.00 0.00 0.00 77 1013.5
20260505201000 9 355 12.9 22.5 0.00 0.00 0.00 77 1013.4
20260505195458 10 9 8.0 22.5 0.00 0.00 0.00 75 1013.4
20260505194458 10 355 12.9 19.3 0.00 0.00 0.00 74 1013.4
20260505193458 10 350 12.9 24.1 0.00 0.00 0.00 74 1013.4
20260505192958 10 5 17.7 24.1 0.00 0.00 0.00 73 1013.4
20260505192458 10 16 12.9 22.5 0.00 0.00 0.00 74 1013.4
20260505191958 10 9 12.9 22.5 0.00 0.00 0.00 74 1013.3
20260505191459 10 351 12.9 24.1 0.00 0.00 0.00 74 1013.3
20260505191000 10 5 22.5 22.5 0.00 0.00 0.00 74 1013.3
20260505185959 11 16 11.3 25.7 0.00 0.00 0.00 74 1013.2
20260505185459 11 22 12.9 25.7 0.00 0.00 0.00 74 1013.2
20260505184958 11 338 17.7 24.1 0.00 0.00 0.00 73 1013.3
20260505184000 11 56 16.1 27.4 0.00 0.00 0.00 72 1013.3
20260505183500 11 24 16.1 27.4 0.00 0.00 0.00 72 1013.3
20260505182959 11 22 14.5 27.4 0.00 0.00 0.00 71 1013.3
20260505182459 11 355 22.5 25.7 0.00 0.00 0.00 72 1013.2
20260505181459 11 45 16.1 27.4 0.00 0.00 0.00 71 1013.2
20260505180958 11 5 17.7 27.4 0.00 0.00 0.00 71 1013.2
20260505180459 12 5 19.3 29.0 0.00 0.00 0.00 72 1013.3
20260505180002 12 15 19.3 29.0 0.00 0.00 0.00 71 1013.2
20260505175459 12 341 17.7 24.1 0.00 0.00 0.00 71 1013.3
20260505174459 12 32 16.1 25.7 0.00 0.00 0.00 70 1013.3
20260505174000 12 355 17.7 25.7 0.00 0.00 0.00 68 1013.3
20260505173000 12 24 20.9 27.4 0.00 0.00 0.00 67 1013.3
20260505172459 12 355 16.1 29.0 0.00 0.00 0.00 67 1013.2
20260505172000 12 5 17.7 29.0 0.00 0.00 0.00 67 1013.3
20260505171459 12 360 17.7 32.2 0.00 0.00 0.00 67 1013.2
20260505170959 12 28 29.0 32.2 0.00 0.00 0.00 66 1013.2
20260505170500 12 16 16.1 32.2 0.00 0.00 0.00 66 1013.2
20260505170000 12 360 17.7 32.2 0.00 0.00 0.00 65 1013.2
20260505165500 12 12 25.7 30.6 0.00 0.00 0.00 67 1013.2
20260505164959 12 11 17.7 24.1 0.00 0.00 0.00 67 1013.2
20260505164501 12 5 19.3 24.1 0.00 0.00 0.00 66 1013.3
20260505164000 12 5 19.3 24.1 0.00 0.00 0.00 66 1013.3
20260505163458 12 28 20.9 25.7 0.00 0.00 0.00 66 1013.3
20260505163000 12 360 12.9 29.0 0.00 0.00 0.00 65 1013.4
20260505162500 12 5 20.9 29.0 0.00 0.00 0.00 64 1013.3
20260505161959 13 22 19.3 24.1 0.00 0.00 0.00 65 1013.4
20260505161459 13 355 12.9 22.5 0.00 0.00 0.00 65 1013.4
20260505160959 13 360 17.7 25.7 0.00 0.00 0.00 67 1013.3
20260505160459 13 5 16.1 25.7 0.00 0.00 0.00 64 1013.3
20260505152500 13 360 16.1 30.6 0.00 0.00 0.00 67 1013.5
20260505152000 13 5 16.1 30.6 0.00 0.00 0.00 66 1013.5
20260505151459 13 39 17.7 24.1 0.00 0.00 0.00 66 1013.3
20260505150958 12 336 22.5 25.7 0.00 0.00 0.00 66 1013.4
20260505150500 13 17 17.7 24.1 0.00 0.00 0.00 68 1013.4
20260505140459 13 30 17.7 29.0 0.00 0.00 0.00 68 1013.4
20260505124958 13 12 16.1 27.4 0.00 0.00 0.00 66 1013.3
20260505124500 13 41 14.5 29.0 0.00 0.00 0.00 65 1013.3
20260505124000 14 355 14.5 29.0 0.00 0.00 0.00 65 1013.2
20260505123500 14 27 17.7 27.4 0.00 0.00 0.00 66 1013.4
20260505122959 13 350 20.9 27.4 0.00 0.00 0.00 65 1013.3
20260505122459 13 44 19.3 25.7 0.00 0.00 0.00 64 1013.4
20260505121959 13 9 16.1 24.1 0.00 0.00 0.00 65 1013.3
20260505121459 13 34 17.7 25.7 0.00 0.00 0.00 65 1013.2
20260505121000 13 355 14.5 20.9 0.00 0.00 0.00 64 1013.2
20260505120003 14 14 14.5 29.0 0.00 0.00 0.00 63 1013.3
20260505115500 14 19 17.7 25.7 0.00 0.97 0.00 63 1013.3
20260505115000 14 12 11.3 24.1 0.00 0.97 0.00 66 1013.2
20260505114001 14 33 17.7 30.6 0.00 0.97 0.00 65 1013.3
20260505113000 13 17 8.0 27.4 0.00 0.97 0.00 66 1013.5
20260505112459 13 39 19.3 27.4 0.00 0.97 0.00 66 1013.5
20260505111959 13 355 17.7 24.1 0.00 0.97 0.00 65 1013.5
20260505111459 13 5 14.5 24.1 0.00 0.97 0.00 65 1013.5
20260505110959 13 340 9.7 25.7 0.00 0.97 0.00 65 1013.5
20260505102000 14 355 14.5 25.7 0.00 0.97 0.00 66 1013.7
20260505101459 14 319 14.5 25.7 0.00 0.97 0.00 67 1013.6
20260505101001 13 24 9.7 22.5 0.00 0.97 0.00 66 1013.7
20260505100458 13 5 17.7 24.1 0.00 0.97 0.00 64 1013.7
20260505100000 14 13 19.3 24.1 0.00 0.97 0.00 65 1013.6
20260505095500 14 37 9.7 19.3 0.00 0.97 0.00 66 1013.6
20260505095000 14 34 9.7 24.1 0.00 0.97 0.00 66 1013.7
20260505093959 13 24 8.0 22.5 0.00 0.97 0.00 66 1013.7
20260505093458 13 16 16.1 22.5 0.00 0.97 0.00 68 1013.8
20260505093000 13 15 8.0 24.1 0.00 0.97 0.00 67 1013.8
20260505092458 13 31 14.5 24.1 0.00 0.97 0.00 67 1013.7
20260505091959 13 32 16.1 24.1 0.00 0.97 0.00 68 1013.7
20260505091500 13 360 12.9 22.5 0.00 0.97 0.00 68 1013.7
20260505090459 13 5 14.5 19.3 0.00 0.97 0.00 69 1013.8
20260505085500 13 5 12.9 20.9 0.00 0.97 0.00 70 1013.9
20260505084955 13 17 19.3 20.9 0.00 0.97 0.00 70 1013.7
20260505084456 13 5 8.0 20.9 0.00 0.97 0.00 69 1013.8
20260505083956 13 10 14.5 20.9 0.00 0.97 0.00 70 1013.8
20260505083455 13 355 17.7 17.7 0.00 0.97 0.00 73 1013.8
20260505082956 13 54 11.3 19.3 0.00 0.97 0.00 74 1013.8
20260505082456 13 37 9.7 20.9 0.00 0.97 0.00 75 1013.9
20260505081956 13 19 16.1 19.3 0.00 0.97 0.00 79 1013.9
20260505081457 12 355 9.7 11.3 0.00 0.97 0.00 80 1013.9
20260505080955 12 34 4.8 11.3 0.00 0.97 0.00 82 1013.9
20260505080456 12 10 6.4 11.3 0.00 0.97 0.00 83 1013.9
20260505075959 12 5 8.0 12.9 0.00 0.97 0.00 85 1013.9
20260505075458 11 9 8.0 12.9 0.00 0.99 0.00 85 1013.8
20260505074958 11 50 3.2 12.9 0.00 0.99 0.00 85 1013.9
20260505074457 11 32 4.8 12.9 0.00 0.99 0.00 85 1014.0
20260505073957 11 18 6.4 16.1 0.00 0.99 0.00 85 1013.9
20260505072458 11 28 12.9 19.3 0.00 0.99 0.00 85 1014.0
20260505071957 11 36 14.5 19.3 0.00 0.99 0.00 85 1014.0
20260505070957 11 5 14.5 19.3 0.00 0.99 0.00 86 1014.0
20260505070458 10 348 8.0 22.5 0.00 0.99 0.00 86 1014.0
20260505065958 10 355 12.9 22.5 0.00 0.99 0.00 86 1013.9
20260505065455 10 19 12.9 17.7 0.00 0.99 0.00 86 1013.9
20260505064956 10 5 9.7 17.7 0.00 0.99 0.00 86 1013.9
20260505064456 10 355 14.5 16.1 0.00 0.99 0.00 86 1013.9
20260505063955 10 5 12.9 16.1 0.00 0.99 0.00 86 1014.0
20260505062956 10 13 14.5 19.3 0.00 0.99 0.00 87 1013.8
20260505062456 10 17 11.3 19.3 0.00 0.99 0.00 87 1013.9
20260505061956 10 15 12.9 20.9 0.00 0.99 0.00 87 1013.9
20260505060956 10 26 8.0 22.5 0.00 0.99 0.00 87 1013.7
20260505060456 10 28 14.5 22.5 0.00 0.99 0.00 87 1013.7
20260505055959 10 5 16.1 20.9 0.00 0.99 0.00 87 1013.7
20260505055456 10 5 14.5 25.7 0.00 0.99 0.00 88 1013.6
20260505054956 10 355 19.3 25.7 0.00 0.99 0.00 88 1013.6
20260505054456 10 11 11.3 20.9 0.00 0.99 0.00 88 1013.6
20260505053956 10 22 12.9 20.9 0.00 0.99 0.00 88 1013.6
20260505053456 10 360 12.9 19.3 0.00 0.99 0.00 88 1013.6
20260505052956 10 355 8.0 22.5 0.00 0.99 0.00 88 1013.8
20260505052456 10 9 11.3 22.5 0.00 0.99 0.00 88 1013.7
20260505051956 10 351 14.5 19.3 0.00 0.99 0.00 88 1013.6
20260505051456 10 348 6.4 16.1 0.00 0.99 0.00 87 1013.7
20260505050957 10 342 14.5 19.3 0.00 0.99 0.00 87 1013.7
20260505041455 10 337 12.9 12.9 0.00 1.04 0.00 87 1013.5
20260505040957 10 18 6.4 16.1 0.00 1.04 0.00 87 1013.6
20260505040456 10 360 4.8 16.1 0.00 1.04 0.00 88 1013.5
20260505035455 10 345 0.0 6.4 0.00 1.04 0.00 87 1013.6
20260505034956 10 342 1.6 8.0 0.00 1.04 0.00 88 1013.5
20260505034457 10 341 6.4 12.9 0.00 1.04 0.00 87 1013.5
20260505033456 10 342 1.6 6.4 0.00 1.04 0.00 87 1013.5
20260505032956 10 306 3.2 6.4 0.00 1.04 0.00 87 1013.6
20260505032456 10 298 4.8 6.4 0.00 1.04 0.00 87 1013.5
20260505031956 10 334 0.0 0.0 0.00 1.04 0.00 87 1013.5
20260505031457 10 172 0.0 0.0 0.00 1.04 0.00 87 1013.4
20260505030956 10 172 0.0 1.6 0.00 1.04 0.00 87 1013.4
20260505030456 10 153 0.0 4.8 0.00 1.04 0.00 87 1013.4
20260505025958 10 344 3.2 4.8 0.00 1.04 0.00 87 1013.5
20260505024456 10 344 4.8 8.0 0.00 1.04 0.00 86 1013.4
20260505023958 10 313 4.8 8.0 0.00 1.04 0.00 86 1013.4
20260505023456 10 344 3.2 6.4 0.00 1.04 0.00 86 1013.5
20260505022958 10 329 4.8 6.4 0.00 1.04 0.00 86 1013.4
20260505022458 10 346 4.8 6.4 0.00 1.04 0.00 86 1013.5
20260505021958 10 355 4.8 6.4 0.00 1.04 0.00 86 1013.5
20260505021457 10 360 4.8 6.4 0.00 1.04 0.00 86 1013.5
20260505020957 10 355 3.2 6.4 0.00 1.04 0.00 86 1013.3
20260505020457 10 336 6.4 6.4 0.00 1.04 0.00 86 1013.4
20260505015958 10 349 3.2 4.8 0.00 1.04 0.00 86 1013.4
20260505015456 10 326 0.0 4.8 0.00 1.04 0.00 86 1013.5
20260505014956 10 325 3.2 4.8 0.00 1.04 0.00 86 1013.5
20260505014458 10 336 1.6 6.4 0.00 1.04 0.00 86 1013.5
20260505013957 10 322 6.4 6.4 0.00 1.04 0.00 86 1013.6
20260505013457 10 322 1.6 6.4 0.00 1.04 0.00 86 1013.7
20260505012955 10 329 3.2 4.8 0.00 1.04 0.00 86 1013.7
20260505011456 10 288 3.2 6.4 0.00 1.04 0.00 86 1013.7